Location: Mizzole
(45.4833°N, 11.0500°E)
Time: 19:56:47
(UTC+00:00)

Cosmos 1300 - Pass Details

Date: 21 October 2019
Orbit: 511 x 515 km, 82.5° (Epoch: 18 November)

Event Time Altitude Azimuth Distance (km) Brightness Sun altitude
Rises 17:46:45 0° 176° (S) 2,619 6.2 -15.8°
Reaches altitude 10° 17:48:53 10° 172° (S) 1,737 5.3 -16.1°
Maximum altitude 17:52:36 54° 95° (E) 632 2.7 -16.8°
Drops below altitude 10° 17:56:21 10° 18° (NNE) 1,750 5.2 -17.4°
Sets 17:58:31 0° 14° (NNE) 2,641 6.2 -17.8°
